Regional Weather Roundup
Issued by NWS

Home | Current Version | Previous Version | Graphics & Text | Print | Product List | Glossary On
Versions: 1 2 3 4 5 6 7 8 9 10 11 12 13 14 15 16 17 18 19 20 21 22 23 24 25 26 27 28 29 30 31 32 33 34 35 36 37 38 39 40 41 42 43 44 45 46 47 48 49 50
000
ASUS43 KLOT 271708
RWRIL

ILLINOIS REGIONAL WEATHER ROUNDUP
NATIONAL WEATHER SERVICE CHICAGO/ROMEOVILLE IL
1200 PM CDT FRI MAY 27 2016

NOTE: "FAIR" INDICATES FEW OR NO CLOUDS BELOW 12,000 FEET WITH NO
SIGNIFICANT WEATHER AND/OR OBSTRUCTIONS TO VISIBILITY.

* THESE STATIONS ARE NOT UNDER NWS QUALITY CONTROL. THEY ALSO MAY NOT
  REPORT WEATHER SUCH AS PRECIPITATION OR FOG.

ILZ001-002-007-009-015-016-024-271800-
NORTHWEST ILLINOIS

CITY           SKY/WX    TMP DP  RH WIND       PRES   REMARKS
MOLINE         CLOUDY    74  66  76 S13G23    29.81R
STERLING*      CLOUDY    77  65  66 SE15      29.83F
SAVANNA*       CLOUDY    77  67  70 S14G20    29.82S
$$

ILZ003-004-008-010-011-017-018-271800-
NORTH CENTRAL ILLINOIS

CITY           SKY/WX    TMP DP  RH WIND       PRES   REMARKS
ROCKFORD       CLOUDY    79  65  62 S18       29.87F HX  81
FREEPORT*      CLOUDY    78  65  63 S18       29.85F HX  80
ROCHELLE*      CLOUDY    78  66  66 SE20G28   29.86F HX  80
DE KALB*       CLOUDY    77  67  71 S17       29.89S
$$

ILZ005-006-012>014-019>023-271800-
NORTHEAST ILLINOIS

CITY           SKY/WX    TMP DP  RH WIND       PRES   REMARKS
CHICAGO-OHARE  PTSUNNY   78  66  66 S12       29.89F HX  80
CHICAGO-MIDWAY CLOUDY    81  64  56 S10       29.89F HX  82
AURORA         PTSUNNY   80  67  64 S13       29.88F HX  82
LANSING*       CLOUDY    80  65  58 S15       29.92F HX  82
JOLIET*        CLOUDY    80  67  65 S12       29.90F HX  82
WAUKEGAN       LGT RAIN  76  68  76 S9        29.90R
DUPAGE AIRPORT CLOUDY    79  66  64 S17       29.89F HX  81
KANKAKEE*      PTSUNNY   80  65  59 S14G22    29.92S HX  82
WHEELING       MOSUNNY   77  66  68 S9        29.90F
MORRIS*        MOSUNNY   83  64  53 S16G23    29.88F HX  84
ROMEOVILLE*    PTSUNNY   79  62  56 S13       29.90F HX  80
NORTHERLY ISL    N/A     77  63  61 S10         N/A
NORTHERLY ISL    N/A     77  63  61 S10         N/A
$$

LMZ740>746-271800-
SOUTHERN LAKE MICHIGAN

STATION/POSITION SKY/WX   TEMP    WIND        PRES    VSBY  WAVE
                          AIR SEA DIR/SP/G                  HT/PER
                          (F)     (DEG/KT/KT) (MB)    (MI)  (FT/S)
SOUTHERN BUOY              54 50  140/ 10/ 12 1013.1S         1/ 3
WILMETTE HARBOR            62 58  150/  8/ 10   N/A           1
HARRISON CRIB              72     180/ 16/ 17   N/A
BURNHAM HARBOR             78     160/  8/ 14   N/A
CALUMET HARBOR             74     180/  9/ 12 1012.6R
BURNS HARBOR               74     180/ 11/ 18 1014.2R
MICHIGAN CITY              72     140/ 10/ 12   N/A
MICHIGAN CITY 6N           68 59  220/  6/ 10   N/A           1
ST. JOSEPH                 67 62  170/  4/  6   N/A           1/ 2
$$

ILZ025>027-034>036-040-047-049-050-058-095>099-271800-
WEST-CENTRAL ILLINOIS

CITY           SKY/WX    TMP DP  RH WIND       PRES   REMARKS
QUINCY         CLOUDY    72  67  84 S16G24    29.80R
GALESBURG*     CLOUDY    70  66  88 S13       29.82S
MACOMB*        CLOUDY    70  67  90 S21       29.83F
JACKSONVILLE*  CLOUDY    72  67  84 S13G20    29.84S
PITTSFIELD*    CLOUDY    72  68  88 S22       29.83F
$$

ILZ028>032-037-038-041>044-048-051>054-059>061-271800-
CENTRAL ILLINOIS

CITY           SKY/WX    TMP DP  RH WIND       PRES   REMARKS
PONTIAC        PTSUNNY   79  67  65 S21       29.90F HX  81
BLOOMINGTON    CLOUDY    76  68  76 S22G29    29.90F
DECATUR        CLOUDY    74  65  73 S17G29    29.89F
PEORIA         CLOUDY    76  64  66 SE21G29   29.84F
LACON*         PTSUNNY   76  64  66 S13G23    29.84F
LINCOLN*       CLOUDY    74  67  78 S17G25    29.87F
SPRINGFIELD    CLOUDY    73  66  78 S16G26    29.86F
TAYLORVILLE    CLOUDY    73  68  84 S16       29.88S
$$

ILZ033-039-045-046-055>057-062-063-271800-
EAST-CENTRAL ILLINOIS

CITY           SKY/WX    TMP DP  RH WIND       PRES   REMARKS
CHAMPAIGN      MOSUNNY   78  64  61 S20       29.92F HX  80
RANTOUL*       CLOUDY    78  66  66 S22       29.92F HX  80
MATTOON        CLOUDY    76  65  68 S14G22    29.93F
PARIS*         CLOUDY    78  67  69 SE10      29.96S HX  80
$$

ILZ079-100>102-271800-
SOUTHWEST ILLINOIS

CITY           SKY/WX    TMP DP  RH WIND       PRES   REMARKS
ALTON          PTSUNNY   73  68  83 S13G20    29.86F
BELLEVILLE     CLOUDY    73  73 100 E8        29.86F
CAHOKIA*       CLOUDY    75  68  78 S13G20    29.86F
SPARTA*        CLOUDY    68  67  96 SE12      29.90F
$$

ILZ064>066-069>071-074>076-080>082-084>086-088>090-092>094-271800-
SOUTH-CENTRAL ILLINOIS

CITY           SKY/WX    TMP DP  RH WIND       PRES   REMARKS
CARBONDALE     CLOUDY    72  68  87 S9        29.92F
CAIRO*         CLOUDY    77  71  81 SE12      29.92F
EFFINGHAM*     DRIZZLE   71  69  94 SE9       29.95F
MARION         CLOUDY    75  72  88 S12       29.94F
MT. VERNON     CLOUDY    72  66  83 SE9       29.95F
CENTRALIA*     PTSUNNY   70  69  97 SE12      29.90F
SALEM*         LGT RAIN  70  67  90 SE6       29.93F
METROPOLIS*    PTSUNNY   79  73  80 S10G16    29.95F HX  83
$$

ILZ067-068-072-073-078-083-087-091-271800-
SOUTHEAST ILLINOIS

CITY           SKY/WX    TMP DP  RH WIND       PRES   REMARKS
LAWRENCEVILLE  CLOUDY    80  71  74 S15       29.96F HX  84
FLORA*         CLOUDY    74  68  81 S8        29.95F
FAIRFIELD*     CLOUDY    75  68  78 S8        29.94F
HARRISBURG*    CLOUDY    76  71  82 S8        29.95F
ROBINSON*      CLOUDY    78  69  74 S13       29.96F HX  80
CARMI*         CLOUDY    76  70  82 SE10      29.95F
$$

ABBREVIATIONS USED IN REMARKS
   TC - TEMPERATURE IN CELSIUS
  WCI - WIND CHILL INDEX
   HX - HEAT INDEX
  VSB - VISIBILITY
$$





USA.gov is the U.S. government's official web portal to all federal, state and local government web resources and services.